カタログに戻る

CZ-6A DEB

運用中SSO
NORAD 54461·DEBRIS·🇨🇳 China

打ち上げ Nov 11, 2022 から Taiyuan Satellite Launch Center

Loading…

次のパス (今後24時間)

TLE

最新Source: Space-Track

元期: Sep 14, 2026, 22:51 UTC

1 54461U 22151GM  26257.95270887  .00000293  00000-0  21606-3 0  9991
2 54461  99.0198 251.6645 0127329 154.5011 206.2508 13.99190578195547

AllMySatでCZ-6A DEBをリアルタイム追跡

Download on the App Store